Torna al catalogo

STARLINK-3536

AttivoComunicazioniVLEO
NORAD 51888·PAYLOAD·🇺🇸 United States

Lanciato Mar 3, 2022 da Cape Canaveral Space Force Station

Loading…

Prossimi Passaggi (prossime 24 ore)

TLE

AggiornatoSource: CelesTrak SupGP

Epoca: Sep 14, 2026, 22:14 UTC

1 51888C 22022AN  26257.92687500  .00005356  00000+0  16251-3 0  2570
2 51888  53.1570 215.9545 0001443  95.9395 354.4453 15.33549429    10

Traccia STARLINK-3536 in tempo reale con AllMySat

Download on the App Store